2020 KR1
ephemeris date magn radius delta ra dec elong phase
Today5 Sep 202628.21.575 AU2.538 AU11h47m+05°17'13.4°8.5°
2020 KR1 - 2026-09-05
astro.vanbuitenen.nl


 
-1 year
-1 month
-1 day
Now
+1 day
+1 month
+1 year

The interactive orbit chart above shows the body's path through the solar system and its position at the given date. Green and blue lines are shown perpendicular to the ecliptic plane: Green if the path is above the ecliptic plane, blue if it is below. (Left-click and drag to rotate the view; Right-click and drag to move the view; Use scroll wheel to zoom in our out.)

The orbital elements of 2020 KR1 are:

            e (Eccentricity)                : 0.3893132
            a (Semimajor axis)              : 1.6779499
            i (Inclination)                 : 5.84422
            Ω (Longitude of ascending node) : 97.99269
            ω (Argument of perihelion)      : 189.57608
            M (Mean anomaly)                : 261.22308
            Epoch                           : 2026 Jun 09

            L (Longitude of perihelion)     : 107.51991
            B (Latitude of perihelion)      : -0.97059
            P (Orbital period in years)     : 2.17            
        

The light curve chart below shows the estimated development of the minor planet's magnitude.


The all-sky chart below shows the path of the minor planet over the same period as the light curve. The current position is marked yellow.





The following chart shows the path of the minor planet in the next few days. The field of view is optimized for (~10x50) binoculars and finderscopes.




Ephemerides:
Date       Time       RA (2000)    DEC (2000)    delta   radius  elong  phase   PA    magn
2026-09-05 00:00 UT   11 47 25.4   +05 17 45     2.538    1.575   13.4    8.5    98   28.2 
2026-09-05 02:36 UT   11 47 40.9   +05 16 02     2.538    1.574   13.4    8.5    98   28.2 
2026-09-06 00:00 UT   11 49 48.9   +05 01 55     2.534    1.569   13.1    8.4    98   28.2 
2026-09-07 00:00 UT   11 52 13.1   +04 46 00     2.531    1.564   12.8    8.2    97   28.2 
2026-09-08 00:00 UT   11 54 37.8   +04 29 59     2.527    1.558   12.5    8.0    97   28.1 
2026-09-09 00:00 UT   11 57 03.2   +04 13 54     2.523    1.553   12.2    7.9    97   28.1 
2026-09-10 00:00 UT   11 59 29.1   +03 57 42     2.519    1.547   11.9    7.7    96   28.1 
2026-09-11 00:00 UT   12 01 55.7   +03 41 26     2.515    1.542   11.6    7.6    96   28.1 
2026-09-12 00:00 UT   12 04 22.9   +03 25 05     2.511    1.536   11.3    7.4    95   28.1 
2026-09-13 00:00 UT   12 06 50.7   +03 08 39     2.506    1.531   11.0    7.2    95   28.0 
2026-09-14 00:00 UT   12 09 19.2   +02 52 08     2.502    1.525   10.8    7.1    94   28.0 
2026-09-15 00:00 UT   12 11 48.3   +02 35 32     2.498    1.520   10.5    6.9    94   28.0 
2026-09-16 00:00 UT   12 14 18.1   +02 18 51     2.493    1.514   10.2    6.8    93   28.0 
2026-09-17 00:00 UT   12 16 48.5   +02 02 05     2.489    1.509    9.9    6.6    93   28.0 


    Terminology:
            
    delta:  distance between minor planet and earth in AU
    radius: distance between minor planet and sun in AU
    magn:   magnitude (brightness) estimate    
    ra:     right ascension in hours (24h = 360deg)
    dec:    declination in degrees
    elong:  elongation in degrees (angle sun-earth-minor planet)    
    phase:  phase angle in degrees (angle sun-minor planet-earth)        
    AU:     Astronomical Unit (mean distance between earth and sun: 149597870.7 km
    

Orbital elements provided by the MPC (Minor Planet Center).
Calculations by a modified version of AAPlus, a C# implementation of the AA+ project by PJ Naughter from the algorithms presented in the book "Astronomical Algorithms" by Jean Meeus.
NGC2000 dso catalog and star labels from VizieR as provided by the Strasbourg astronomical Data Center.
Tycho2 catalog from the ESO archive.